Flood From: 24-02-2018 06:00 Until: 25-02-2018 06:00 warning for: Flood Level: Yellow info button

Although rather usual in this region, locally or potentially dangerous phenomena are expected. (such as local winds, summer thunderstorms, rising streams or high waves) Be aware and pay attention to the latest weather updates, especially if you carry out activities exposed to weather or close to a stream or shoreline. 


Meteo18 Weather Cam more information Meteo18 Weather Cam


Thunder radar more information blitzortung!


Rain radar more information rain snow radar


Visit our other weather sites:

Template documentation
and downloads

And another site



Weather Underground History page Text

Daily Summary for November 30, 2017 Units:  Metric    English   Both
« Previous Day
Next Day »
Daily Weekly Monthly Yearly Custom
  High: Low: Average:
Temperature: -17.8 °C -17.9 °C -16.7 °C
Dew Point: -17.8 °C -18.2 °C -17.2 °C
Humidity: Humidity % 90 % 93 %
Wind Speed: 0 km/h 0 km/h 8.4 km/h
Wind Gust: 0 km/h - -
Wind:- - WNW
Pressure: 0 hPa 34198.6 hPa -
Precipitation: 91.44 mm    
Historical Graphs
 
 
Tabular Data for November 30, 2017
Time Temperature Dew Point Pressure Wind Wind Speed Wind Gust Humidity Rainfall Rate (Hourly)
-17.8 °C -17.8 °C 0 hPa Calm     Humidity % 0 mm
00:12 -16.3 °C -16.8 °C 34246 hPa West 5.1 km/h 7.7 km/h 93 % 0 mm
00:17 -16.3 °C -16.8 °C 34246 hPa WNW 10.3 km/h 10.3 km/h 93 % 0 mm
00:22 -16.3 °C -16.8 °C 34246 hPa West 5.1 km/h 10.3 km/h 93 % 0 mm
00:37 -16.3 °C -16.8 °C 34246 hPa WNW 5.1 km/h 15.6 km/h 93 % 0 mm
00:47 -16.3 °C -16.8 °C 34246 hPa WNW 2.6 km/h 12.9 km/h 93 % 0 mm
00:52 -16.3 °C -16.8 °C 34246 hPa West 7.7 km/h 12.9 km/h 93 % 0 mm
00:57 -16.3 °C -16.8 °C 34246 hPa West 5.1 km/h 10.3 km/h 93 % 0 mm
01:02 -16.3 °C -16.9 °C 34246 hPa West 10.3 km/h 10.3 km/h 93 % 0 mm
01:17 -16.3 °C -16.9 °C 34235.8 hPa WSW 5.1 km/h 18.2 km/h 93 % 0 mm
01:22 -16.3 °C -16.9 °C 34246 hPa WNW 2.6 km/h 18.2 km/h 93 % 0 mm
01:42 -16.4 °C -16.9 °C 34235.8 hPa WNW 7.7 km/h 15.6 km/h 94 % 0 mm
01:47 -16.4 °C -16.9 °C 34235.8 hPa West 12.9 km/h 15.6 km/h 94 % 0 mm
01:52 -16.4 °C -16.9 °C 34235.8 hPa WNW 12.9 km/h 15.6 km/h 93 % 0 mm
01:57 -16.4 °C -17 °C 34235.8 hPa West 12.9 km/h 20.8 km/h 93 % 0 mm
02:12 -16.4 °C -17 °C 34235.8 hPa WNW 12.9 km/h 20.8 km/h 93 % 0 mm
02:17 -16.4 °C -17 °C 34235.8 hPa West 5.1 km/h 25.9 km/h 93 % 0 mm
02:22 -16.4 °C -17 °C 34235.8 hPa WNW 10.3 km/h 25.9 km/h 93 % 0 mm
02:37 -16.4 °C -17 °C 34235.8 hPa West 12.9 km/h 18.2 km/h 93 % 0 mm
02:47 -16.5 °C -17 °C 34246 hPa WNW 18.2 km/h 20.8 km/h 94 % 0 mm
02:52 -16.5 °C -17 °C 34246 hPa West 10.3 km/h 20.8 km/h 94 % 0 mm
02:57 -16.5 °C -17 °C 34246 hPa West 7.7 km/h 18.2 km/h 94 % 0 mm
03:02 -16.4 °C -16.9 °C 34246 hPa West 7.7 km/h 18.2 km/h 94 % 0 mm
03:12 -16.4 °C -16.9 °C 34246 hPa West 7.7 km/h 15.6 km/h 94 % 0 mm
03:37 -16.4 °C -16.9 °C 34235.8 hPa WNW 12.9 km/h 20.8 km/h 94 % 0 mm
03:42 -16.4 °C -16.9 °C 34235.8 hPa NW 31.1 km/h 31.1 km/h 94 % 0 mm
03:52 -16.4 °C -16.9 °C 34235.8 hPa West 10.3 km/h 31.1 km/h 94 % 0 mm
04:02 -16.4 °C -16.9 °C 34235.8 hPa WNW 10.3 km/h 31.1 km/h 94 % 0 mm
04:12 -16.5 °C -17 °C 34235.8 hPa NW 12.9 km/h 20.8 km/h 94 % 0 mm
04:17 -16.5 °C -17 °C 34235.8 hPa WNW 10.3 km/h 28.5 km/h 94 % 0 mm
04:32 -16.5 °C -17 °C 34235.8 hPa WNW 7.7 km/h 20.8 km/h 94 % 0 mm
04:42 -16.6 °C -17.1 °C 34235.8 hPa WNW 5.1 km/h 28.5 km/h 94 % 7.62 mm
04:47 -16.6 °C -17.1 °C 34235.8 hPa WNW 18.2 km/h 25.9 km/h 94 % 12.7 mm
05:02 -16.6 °C -17.1 °C 34235.8 hPa WNW 5.1 km/h 25.9 km/h 94 % 12.7 mm
05:07 -16.6 °C -17.1 °C 34235.8 hPa NW 10.3 km/h 28.5 km/h 94 % 12.7 mm
05:12 -16.6 °C -17.1 °C 34235.8 hPa NW 10.3 km/h 28.5 km/h 94 % 12.7 mm
05:17 -16.6 °C -16.9 °C 34235.8 hPa NW 2.6 km/h 28.5 km/h 95 % 12.7 mm
05:22 -16.5 °C -16.9 °C 34235.8 hPa NNW 7.7 km/h 28.5 km/h 95 % 12.7 mm
05:42 -16.4 °C -16.9 °C 34235.8 hPa WNW 10.3 km/h 25.9 km/h 94 % 7.62 mm
05:47 -16.4 °C -16.9 °C 34235.8 hPa NW 12.9 km/h 20.8 km/h 94 % 0 mm
05:52 -16.4 °C -16.9 °C 34235.8 hPa West 5.1 km/h 20.8 km/h 94 % 0 mm
06:02 -16.4 °C -16.9 °C 34235.8 hPa West 2.6 km/h 20.8 km/h 94 % 0 mm
06:12 -16.4 °C -16.9 °C 34235.8 hPa WNW 10.3 km/h 23.3 km/h 94 % 0 mm
06:17 -16.4 °C -16.9 °C 34235.8 hPa NW 7.7 km/h 18.2 km/h 94 % 0 mm
06:22 -16.4 °C -16.9 °C 34235.8 hPa WNW 5.1 km/h 18.2 km/h 94 % 0 mm
06:27 -16.4 °C -16.9 °C 34246 hPa West 10.3 km/h 18.2 km/h 94 % 0 mm
06:32 -16.4 °C -16.9 °C 34246 hPa WNW 10.3 km/h 18.2 km/h 94 % 0 mm
06:37 -16.4 °C -16.9 °C 34246 hPa WNW 15.6 km/h 18.2 km/h 94 % 0 mm
06:42 -16.4 °C -16.9 °C 34246 hPa WNW 10.3 km/h 25.9 km/h 94 % 0 mm
06:52 -16.4 °C -16.9 °C 34246 hPa NW 12.9 km/h 25.9 km/h 94 % 0 mm
06:57 -16.4 °C -16.9 °C 34246 hPa WNW 18.2 km/h 23.3 km/h 94 % 0 mm
07:07 -16.4 °C -16.9 °C 34246 hPa NW 2.6 km/h 23.3 km/h 94 % 0 mm
07:12 -16.4 °C -16.9 °C 34246 hPa WSW 5.1 km/h 31.1 km/h 94 % 0 mm
07:17 -16.4 °C -16.9 °C 34246 hPa WNW 10.3 km/h 31.1 km/h 94 % 0 mm
07:22 -16.4 °C -16.9 °C 34246 hPa NW 7.7 km/h 23.3 km/h 94 % 7.62 mm
07:32 -16.4 °C -16.9 °C 34246 hPa WNW 5.1 km/h 23.3 km/h 94 % 7.62 mm
07:42 -16.4 °C -16.9 °C 34246 hPa NW 2.6 km/h 25.9 km/h 94 % 7.62 mm
07:52 -16.4 °C -16.9 °C 34256.2 hPa WNW 18.2 km/h 18.2 km/h 94 % 7.62 mm
07:57 -16.4 °C -16.9 °C 34256.2 hPa WSW 15.6 km/h 18.2 km/h 94 % 7.62 mm
08:02 -16.4 °C -16.9 °C 34256.2 hPa WNW 15.6 km/h 31.1 km/h 94 % 7.62 mm
08:07 -16.4 °C -16.9 °C 34256.2 hPa West 2.6 km/h 31.1 km/h 94 % 7.62 mm
08:17 -16.4 °C -16.9 °C 34256.2 hPa West 2.6 km/h 31.1 km/h 94 % 0 mm
08:22 -16.4 °C -16.9 °C 34256.2 hPa NW 5.1 km/h 18.2 km/h 94 % 0 mm
08:32 -16.4 °C -16.9 °C 34269.7 hPa WNW 5.1 km/h 23.3 km/h 94 % 0 mm
08:42 -16.4 °C -16.9 °C 34269.7 hPa NW 7.7 km/h 25.9 km/h 94 % 0 mm
08:52 -16.4 °C -16.9 °C 34269.7 hPa WNW 12.9 km/h 25.9 km/h 94 % 0 mm
09:02 -16.4 °C -16.9 °C 34279.9 hPa NW 15.6 km/h 28.5 km/h 94 % 0 mm
09:17 -16.4 °C -16.9 °C 34279.9 hPa West 5.1 km/h 20.8 km/h 94 % 0 mm
09:32 -16.4 °C -17 °C 34293.4 hPa NW 12.9 km/h 28.5 km/h 93 % 0 mm
09:42 -16.4 °C -16.9 °C 34279.9 hPa WNW 10.3 km/h 28.5 km/h 93 % 0 mm
09:47 -16.3 °C -16.9 °C 34279.9 hPa West 5.1 km/h 28.5 km/h 93 % 0 mm
10:02 -16.2 °C -16.8 °C 34279.9 hPa West 10.3 km/h 15.6 km/h 93 % 0 mm
10:12 -16.2 °C -16.8 °C 34279.9 hPa NW 5.1 km/h 23.3 km/h 92 % 0 mm
10:17 -16.1 °C -16.7 °C 34279.9 hPa West 10.3 km/h 23.3 km/h 92 % 0 mm
10:27 -16 °C -16.8 °C 34293.4 hPa WNW 10.3 km/h 28.5 km/h 90 % 0 mm
10:32 -16 °C -16.8 °C 34293.4 hPa WNW 12.9 km/h 23.3 km/h 90 % 0 mm
10:47 -16.1 °C -16.8 °C 34293.4 hPa WNW 15.6 km/h 33.6 km/h 91 % 0 mm
10:57 -16.2 °C -16.9 °C 34293.4 hPa WNW 12.9 km/h 33.6 km/h 91 % 0 mm
11:02 -16.1 °C -16.8 °C 34293.4 hPa NW 7.7 km/h 23.3 km/h 92 % 0 mm
11:12 -16.1 °C -16.7 °C 34293.4 hPa SW 5.1 km/h 20.8 km/h 92 % 0 mm
11:17 -16.1 °C -16.8 °C 34293.4 hPa NW 7.7 km/h 20.8 km/h 91 % 0 mm
11:22 -16.1 °C -16.8 °C 34293.4 hPa WSW 7.7 km/h 23.3 km/h 91 % 0 mm
11:27 -16.1 °C -16.8 °C 34293.4 hPa West 2.6 km/h 23.3 km/h 91 % 0 mm
11:32 -16 °C -16.7 °C 34293.4 hPa NW 10.3 km/h 23.3 km/h 91 % 0 mm
11:37 -16 °C -16.7 °C 34279.9 hPa West 15.6 km/h 23.3 km/h 91 % 0 mm
11:47 -15.9 °C -16.7 °C 34279.9 hPa West 12.9 km/h 23.3 km/h 91 % 0 mm
11:52 -15.9 °C -16.8 °C 34279.9 hPa WNW 15.6 km/h 23.3 km/h 90 % 0 mm
12:02 -16 °C -16.8 °C 34269.7 hPa WNW 10.3 km/h 25.9 km/h 90 % 0 mm
12:12 -16 °C -16.7 °C 34269.7 hPa West 15.6 km/h 23.3 km/h 91 % 0 mm
12:17 -16.1 °C -16.8 °C 34269.7 hPa West 7.7 km/h 23.3 km/h 91 % 0 mm
12:27 -16.1 °C -16.8 °C 34269.7 hPa West 7.7 km/h 20.8 km/h 91 % 0 mm
12:32 -16.1 °C -16.8 °C 34269.7 hPa West 20.8 km/h 20.8 km/h 91 % 0 mm
12:37 -16.1 °C -16.8 °C 34256.2 hPa West 5.1 km/h 25.9 km/h 91 % 0 mm
12:42 -16.2 °C -16.9 °C 34256.2 hPa WNW 15.6 km/h 25.9 km/h 91 % 0 mm
12:47 -16.2 °C -16.9 °C 34256.2 hPa West 7.7 km/h 25.9 km/h 91 % 0 mm
12:52 -16.2 °C -16.9 °C 34256.2 hPa West 10.3 km/h 25.9 km/h 91 % 0 mm
13:02 -16.2 °C -16.8 °C 34256.2 hPa West 12.9 km/h 25.9 km/h 92 % 0 mm
13:12 -16.1 °C -16.7 °C 34256.2 hPa WSW 18.2 km/h 20.8 km/h 92 % 0 mm
13:17 -16.1 °C -16.8 °C 34256.2 hPa WSW 15.6 km/h 20.8 km/h 91 % 0 mm
13:27 -16 °C -16.8 °C 34246 hPa West 5.1 km/h 31.1 km/h 90 % 0 mm
13:32 -15.9 °C -16.7 °C 34246 hPa West 15.6 km/h 31.1 km/h 91 % 0 mm
13:47 -16.3 °C -17 °C 34246 hPa WSW 23.3 km/h 33.6 km/h 91 % 12.7 mm
13:52 -16.3 °C -16.9 °C 34246 hPa West 18.2 km/h 33.6 km/h 93 % 12.7 mm
13:57 -16.3 °C -16.9 °C 34246 hPa West 18.2 km/h 31.1 km/h 93 % 20.32 mm
14:12 -16.8 °C -17.3 °C 34246 hPa NW 7.7 km/h 31.1 km/h 93 % 25.4 mm
14:22 -16.6 °C -17 °C 34246 hPa West 2.6 km/h 20.8 km/h 95 % 33.02 mm
14:27 -16.6 °C -17.1 °C 34235.8 hPa WNW 5.1 km/h 20.8 km/h 94 % 33.02 mm
14:42 -16.2 °C -16.7 °C 34222.3 hPa SW 5.1 km/h 12.9 km/h 94 % 33.02 mm
14:47 -16.1 °C -16.6 °C 34222.3 hPa SW 2.6 km/h 12.9 km/h 94 % 20.32 mm
14:57 -15.9 °C -16.6 °C 34222.3 hPa WSW 12.9 km/h 20.8 km/h 92 % 12.7 mm
15:12 -16.2 °C -17.1 °C 34235.8 hPa WNW 15.6 km/h 28.5 km/h 90 % 7.62 mm
15:22 -16.9 °C -17.7 °C 34222.3 hPa WNW 15.6 km/h 31.1 km/h 91 % 12.7 mm
15:32 -17.1 °C -17.7 °C 34235.8 hPa NW 7.7 km/h 31.1 km/h 93 % 12.7 mm
15:37 -17.2 °C -17.8 °C 34235.8 hPa NNW 12.9 km/h 25.9 km/h 93 % 12.7 mm
15:57 -17.4 °C -17.8 °C 34235.8 hPa WNW 7.7 km/h 23.3 km/h 95 % 20.32 mm
16:02 -17.4 °C -17.8 °C 34235.8 hPa NNW 5.1 km/h 23.3 km/h 95 % 20.32 mm
16:12 -17.4 °C -17.8 °C 34235.8 hPa West 2.6 km/h 12.9 km/h 95 % 12.7 mm
16:22 -17.3 °C -17.7 °C 34235.8 hPa West 7.7 km/h 12.9 km/h 95 % 12.7 mm
16:32 -17.3 °C -17.7 °C 34222.3 hPa West 2.6 km/h 15.6 km/h 95 % 12.7 mm
16:37 -17.3 °C -17.7 °C 34222.3 hPa Calm   15.6 km/h 95 % 12.7 mm
16:47 -17.2 °C -17.7 °C 34235.8 hPa WNW 7.7 km/h 10.3 km/h 94 % 12.7 mm
16:52 -17.1 °C -17.6 °C 34235.8 hPa West 5.1 km/h 10.3 km/h 94 % 12.7 mm
17:02 -17.1 °C -17.6 °C 34235.8 hPa WNW 5.1 km/h 12.9 km/h 94 % 12.7 mm
17:07 -17.1 °C -17.6 °C 34235.8 hPa Calm   12.9 km/h 94 % 12.7 mm
17:12 -17.1 °C -17.6 °C 34235.8 hPa WNW 2.6 km/h 12.9 km/h 94 % 12.7 mm
17:17 -17 °C -17.5 °C 34235.8 hPa West 5.1 km/h 10.3 km/h 94 % 7.62 mm
17:22 -16.9 °C -17.4 °C 34235.8 hPa WNW 12.9 km/h 12.9 km/h 94 % 7.62 mm
17:32 -16.8 °C -17.5 °C 34235.8 hPa WNW 5.1 km/h 20.8 km/h 92 % 12.7 mm
17:37 -16.8 °C -17.5 °C 34246 hPa West 5.1 km/h 20.8 km/h 92 % 12.7 mm
17:42 -16.8 °C -17.4 °C 34235.8 hPa West 10.3 km/h 20.8 km/h 92 % 12.7 mm
17:52 -16.8 °C -17.3 °C 34246 hPa WSW 10.3 km/h 20.8 km/h 93 % 7.62 mm
17:57 -16.8 °C -17.3 °C 34246 hPa West 7.7 km/h 20.8 km/h 93 % 12.7 mm
18:02 -16.8 °C -17.4 °C 34246 hPa WNW 10.3 km/h 18.2 km/h 93 % 12.7 mm
18:07 -16.8 °C -17.4 °C 34235.8 hPa WNW 5.1 km/h 18.2 km/h 93 % 12.7 mm
18:12 -16.8 °C -17.4 °C 34246 hPa West 5.1 km/h 18.2 km/h 93 % 12.7 mm
18:17 -16.8 °C -17.3 °C 34235.8 hPa WNW 5.1 km/h 18.2 km/h 93 % 12.7 mm
18:22 -16.8 °C -17.4 °C 34235.8 hPa West 2.6 km/h 15.6 km/h 93 % 12.7 mm
18:32 -16.8 °C -17.4 °C 34246 hPa West 10.3 km/h 15.6 km/h 92 % 7.62 mm
18:37 -16.8 °C -17.4 °C 34235.8 hPa West 2.6 km/h 15.6 km/h 92 % 7.62 mm
18:42 -16.8 °C -17.4 °C 34246 hPa WNW 7.7 km/h 23.3 km/h 92 % 7.62 mm
18:52 -16.8 °C -17.4 °C 34246 hPa NW 12.9 km/h 15.6 km/h 92 % 7.62 mm
19:02 -17 °C -17.8 °C 34256.2 hPa NNW 31.1 km/h 31.1 km/h 90 % 7.62 mm
19:12 -17.6 °C -18.2 °C 34246 hPa WNW 20.8 km/h 46.7 km/h 93 % 7.62 mm
19:22 -17.7 °C -18.1 °C 34235.8 hPa WNW 2.6 km/h 49.2 km/h 95 % 7.62 mm
19:42 -17.7 °C -18 °C 34235.8 hPa Calm   5.1 km/h 96 % 7.62 mm
19:47 -17.7 °C -18 °C 34235.8 hPa Calm   2.6 km/h 96 % 0 mm
19:57 -17.6 °C -17.9 °C 34222.3 hPa SW 5.1 km/h 7.7 km/h 96 % 0 mm
20:22 -17.6 °C -17.9 °C 34222.3 hPa West 2.6 km/h 7.7 km/h 96 % 0 mm
20:27 -17.6 °C -17.9 °C 34212.1 hPa SW 2.6 km/h 7.7 km/h 96 % 0 mm
20:32 -17.6 °C -17.9 °C 34212.1 hPa Calm   7.7 km/h 96 % 0 mm
20:42 -17.6 °C -17.9 °C 34212.1 hPa WNW 2.6 km/h 10.3 km/h 96 % 0 mm
20:52 -17.4 °C -17.8 °C 34212.1 hPa Calm   10.3 km/h 96 % 0 mm
21:02 -17.6 °C -18 °C 34212.1 hPa East 2.6 km/h 7.7 km/h 95 % 0 mm
21:12 -17.7 °C -18.1 °C 34212.1 hPa Calm   2.6 km/h 95 % 0 mm
21:17 -17.7 °C -18.1 °C 34212.1 hPa Calm   2.6 km/h 96 % 0 mm
21:27 -17.7 °C -18 °C 34212.1 hPa NW 5.1 km/h 5.1 km/h 96 % 0 mm
21:32 -17.7 °C -18 °C 34212.1 hPa WNW 12.9 km/h 12.9 km/h 96 % 0 mm
21:42 -17.7 °C -18.1 °C 34212.1 hPa Calm   20.8 km/h 96 % 0 mm
21:47 -17.7 °C -18.1 °C 34198.6 hPa WNW 2.6 km/h 20.8 km/h 96 % 0 mm
22:02 -17.7 °C -18.1 °C 34198.6 hPa North 2.6 km/h 10.3 km/h 96 % 0 mm
22:12 -17.8 °C -18.1 °C 34212.1 hPa Calm   7.7 km/h 96 % 0 mm
22:17 -17.8 °C -18.1 °C 34212.1 hPa Calm   5.1 km/h 96 % 0 mm
22:22 -17.8 °C -18.2 °C 34222.3 hPa Calm   2.6 km/h 96 % 0 mm
22:27 -17.8 °C -18.2 °C 34222.3 hPa Calm   2.6 km/h 96 % 0 mm
22:32 -17.8 °C -18.2 °C 34222.3 hPa Calm   2.6 km/h 96 % 0 mm
22:37 -17.8 °C -18.2 °C 34222.3 hPa Calm   2.6 km/h 96 % 0 mm
22:42 -17.9 °C -18.2 °C 34222.3 hPa Calm   2.6 km/h 96 % 0 mm
22:57 -17.8 °C -18.2 °C 34222.3 hPa WNW 5.1 km/h 23.3 km/h 96 % 0 mm
23:02 -17.8 °C -18.2 °C 34222.3 hPa WNW 10.3 km/h 23.3 km/h 96 % 0 mm
23:07 -17.8 °C -18.2 °C 34222.3 hPa WNW 12.9 km/h 23.3 km/h 96 % 0 mm
23:12 -17.8 °C -18.2 °C 34222.3 hPa West 7.7 km/h 23.3 km/h 96 % 0 mm
23:22 -17.8 °C -18.2 °C 34222.3 hPa WSW 5.1 km/h 20.8 km/h 95 % 0 mm
23:27 -17.8 °C -18.2 °C 34222.3 hPa NW 7.7 km/h 15.6 km/h 95 % 0 mm
Meteo18
Compliments of Weather Underground - 4 mb

Script developed by  Jim McMurry - jmcmurry@mwt.net Adapted for the template by  Wim van der Kuil - Leuven-Template.eu

You find our weather info also at:

European Weather Network

Weather Underground

Equipment we use:

Weather-station
Davis Vue

Weather-program
Meteobridge

Weather-server
Raspberry PI 2 B+

Provider
1 and 1

Davis Vue

Meteobridge

Raspberry PI 2 B+

1 and 1